Flag for U.S.A. Weather past 2 weeks in Palm Springs, California, U.S.A.

Now
99 °F

Clear.


Feels Like: 95 °F
Forecast: 85 / 106 °F
Wind: 12 mph from Northwest

Location: Palm Springs Regional Airport

Current Time: Aug 28, 2014 at 11:08:12 PM

Latest Report: Aug 28, 2014 at 9:53 PM


Visibility: 10 mi

Pressure: 29.79 "Hg

Humidity: 16%

Dew point: 45 °F

Location of Palm SpringsLocation

Historic Weather in Palm Springs — Graph

°F

Palm Springs temperature yesterday

Maximum temperature yesterday: 107 °F (at 3:53 PM)
Minimum temperature yesterday: 80 °F (at 6:53 AM)
Average temperature yesterday: 94 °F

Past Weeks' High & Low Weather Summary

 TemperatureHumidityPressure
High112 °F (Aug 17, 4:53 PM)69% (Aug 22, 6:53 AM)29.96 "Hg (Aug 22, 6:53 AM)
Low74 °F (Aug 22, 6:53 AM)5% (Aug 14, 5:53 PM)29.66 "Hg (Aug 19, 4:53 PM)
Average92 °F26%29.82 "Hg
* Reported Aug 13 9:53 PM — Aug 28 9:53 PM, Palm Springs, Weather by CustomWeather, © 2014

Note: Actual official high and low records may vary slightly from our data, if they occured in-between our weather recording intervals... More about our weather records

Advertising

Palm Springs weather history for previous 24 hours

 ConditionsComfort  
Time TempWeatherWind HumidityBarometerVisibility
9:53 PM
Aug 28
99 °FClear.12 mph16%29.79 "Hg10 mi
8:53 PM100 °FClear.14 mph16%29.78 "Hg10 mi
7:53 PM102 °FSunny.22 mph16%29.75 "Hg10 mi
6:53 PM105 °FSunny.18 mph15%29.74 "Hg10 mi
5:53 PM109 °FSunny.18 mph11%29.74 "Hg10 mi
4:53 PM112 °FSunny.12 mph9%29.75 "Hg10 mi
3:53 PM110 °FSunny.No wind7%29.77 "Hg10 mi
2:53 PM110 °FSunny.3 mph7%29.79 "Hg10 mi
1:53 PM110 °FSunny.8 mph7%29.82 "Hg10 mi
12:53 PM108 °FSunny.5 mph7%29.85 "Hg10 mi
11:53 AM107 °FSunny.3 mph10%29.88 "Hg10 mi
10:53 AM102 °FSunny.No wind13%29.90 "Hg10 mi
9:53 AM97 °FSunny.3 mph20%29.92 "Hg10 mi
8:53 AM93 °FSunny.3 mph24%29.93 "Hg10 mi
7:53 AM85 °FSunny.5 mph36%29.93 "Hg10 mi
6:53 AM80 °FClear.5 mph45%29.92 "Hg10 mi
5:53 AM81 °FClear.3 mph42%29.91 "Hg10 mi
4:53 AM83 °FClear.No wind38%29.90 "Hg10 mi
3:53 AM84 °FClear.5 mph35%29.90 "Hg10 mi
2:53 AM85 °FClear.No wind34%29.90 "Hg10 mi
1:53 AM86 °FClear.8 mph32%29.90 "Hg10 mi
12:53 AM89 °FClear.No wind28%29.90 "Hg10 mi
11:53 PM
Aug 27
90 °FClear.3 mph27%29.90 "Hg10 mi
Weather by CustomWeather, © 2014

See weather overviewHow to use our weather pages